NOAA 16 DEB

Satellite information

Favourite Embed

Satellite Type and Status

DEBRISIN ORBIT

Key statistics

Satellite NOAA 16 DEB at a glance.

Uptime

9214

Days in orbit

Revolutions

≈ 14.2

Per day

Orbit

SSO

Sun Synchronous Orbit

Inclination

98.8

Latest

Satellite identification and parameters

Extended collection of information and parameters for NOAA 16 DEB.

Object identification

Identified? True

Debris? True

Object name: NOAA 16 DEB

International designator: 2000-055HZ

Object number (NORAD): 41356

Object ID (CCSDS): 41356

Country: UNITED STATES OF AMERICA (US)

Current information (Y/N): Y

RCS size: SMALL

Orbital parameters

Period: 101.265 minutes

Inclination: 98.7553 deg

SMA: 7196.689 km

Apoapsis: 845.414 km

Periapsis: 791.695 km

RAAN: 36.0694 deg

Eccentricy: 0.00373222

Argument of periapsis: 322.5297 deg

Mean anomaly: 37.3279 deg

Mean motion: 14.22013234 rev/day

Mean motion (dot): 0.00005757 rev/day2

B* drag term: 0.0026048752 1/REarth

Two-line elements (TLE)

Creation date: Dec. 10, 2025, 10:40 a.m.

Reference frame: TEME

Reference center: EARTH

Epoch: Dec. 10, 2025, 2:16 a.m. UTC

TLE line 0: 0 NOAA 16 DEB

TLE line 1: 1 41356U 00055HZ 25344.09485583 .00005757 00000-0 26049-2 0 9996

TLE line 2: 2 41356 98.7553 36.0694 0037322 322.5297 37.3279 14.22013234510484

Live tracking on map

Real-time ground track for satellite NOAA 16 DEB.

In-orbit conjunctions

A list of the most updated potential collisions computed for object NOAA 16 DEB.

Target Orbit TCA Probability of collision Miss distance Type
COSMOS 1275 DEB LEO 2025-05-03 09:53:26 0.0002320304 75.0 (m) DEBRIS
SCOUT X-4 R/B SSO 2024-10-19 09:07:17 0.0005332471 162.0 (m) ROCKET BODY
METEOR 1-19 LEO 2024-06-05 10:51:55 0.0002097785 481.0 (m) PAYLOAD

Associated space launch

The NOAA K, L and M POES satellites begin the fifth generation of improved environmental monitoring in support of NOAA missions. The instrument payload has significant improvements and additions/deletions. The instrument changes have effected the spacecraft subsystems and data formats.

NOAA 16 DEB was lifted into orbit during the mission ‘Titan II SLV | NOAA 16’, on board a Titan II SLV space rocket.

The launch took place on Sept. 21, 2000, 10:22 a.m. from Space Launch Complex 4W.

For more information about the launch, click the button.

Launch to space Titan II SLV | NOAA 16
Titan II SLV | NOAA 16

Agency: N/A

Status: Launch Successful

Launch date: Sept. 21, 2000, 10:22 a.m. UTC

Rocket: Titan II SLV

Launch pad: Space Launch Complex 4W

Location: Vandenberg SFB, CA, USA

...

Latest news about this satellite

There are no fresh news available about this satellite. Check back as we update our databases every day.


Newsletter sign-up

Weekly statistics, charts and insights to help you stay on top of the space industry.